Location: Most
(50.5133°N, 13.6207°E)
Time: 00:26:58
(UTC+02:00)

Nauka - Pass Details

Date: 25 September 2021
Orbit: 417 x 423 km, 51.6° (Epoch: 17 October)

Event Time Altitude Azimuth Distance (km) Brightness Sun altitude
Rises 20:06:19 0° 269° (W) 2,362 ? -11.8°
Reaches altitude 10° 20:08:25 10° 271° (W) 1,499 ? -12.1°
Maximum altitude 20:11:47 71° 357° (N) 447 ? -12.7°
Enters shadow 20:13:52 21° 78° (ENE) 996 ? -13.0°
